This is the latest recevied weather packets stored in our database for station/object SALIDA. If no packets are shown the sender has not sent any weather packets the latest 10 day(s).
| Time | Temp. | Humidity | Pressure | Rain* | Wind** | Luminosity | Snow |
|---|---|---|---|---|---|---|---|
| 1777666594 | 11.11° C | 40% | 1016 hPa | 0 mm | - | - | - |
| 1777665694 | 11.11° C | 43% | 1016.2 hPa | 0 mm | - | - | - |
| 1777664794 | 10.56° C | 45% | 1016.7 hPa | 0 mm | - | - | - |
| 1777663894 | 8.89° C | 45% | 1016.9 hPa | 0 mm | - | - | - |
| 1777662994 | 8.33° C | 47% | 1016.9 hPa | 0 mm | - | - | - |
| 1777662094 | 8.89° C | 48% | 1017.2 hPa | 0 mm | - | - | - |
| 1777661194 | 9.44° C | 44% | 1017.4 hPa | 0 mm | - | - | - |
| 1777660294 | 9.44° C | 45% | 1017.4 hPa | 0 mm | - | - | - |
| 1777659394 | 8.33° C | 45% | 1017.6 hPa | 0 mm | - | - | - |
| 1777658494 | 8.33° C | 53% | 1017.7 hPa | 0 mm | - | - | - |
| 1777657594 | 7.22° C | 56% | 1017.9 hPa | 0 mm | - | - | - |
| 1777656694 | 6.11° C | 59% | 1018 hPa | 0 mm | - | - | - |
| 1777655794 | 6.11° C | 62% | 1018 hPa | 0 mm | - | - | - |
| 1777654894 | 5.56° C | 62% | 1018.1 hPa | 0 mm | - | - | - |
| 1777653994 | 5.56° C | 62% | 1018 hPa | 0 mm | - | - | - |
| 1777653094 | 5° C | 66% | 1017.9 hPa | 0 mm | - | - | - |
| 1777652194 | 5° C | 69% | 1017.6 hPa | 0 mm | - | - | - |
| 1777651294 | 4.44° C | 70% | 1017.5 hPa | 0 mm | - | - | - |
| 1777650394 | 3.89° C | 74% | 1017.2 hPa | 0 mm | - | - | - |
| 1777649494 | 3.89° C | 74% | 1017.3 hPa | 0 mm | - | - | - |
| 1777647694 | 3.33° C | 78% | 1017.1 hPa | 0 mm | - | - | - |
| 1777646795 | 2.78° C | 80% | 1017.2 hPa | 0 mm | - | - | - |
| 1777645895 | 2.22° C | 80% | 1017.3 hPa | 0 mm | - | - | - |
| 1777644995 | 2.22° C | 83% | 1017.2 hPa | 0 mm | - | - | - |
| 1777644095 | 1.67° C | 88% | 1017.2 hPa | 0 mm | - | - | - |
* Rain latest hour (hover to see other rain measurements)
** Current wind speed in m/s (hover to see current wind gust speed)